KE7JGM-4 Weather Reports


time (UTC)temp
F
wind
direction
speed
knots
gust
knots
rain 1hr
in
rain 24hr
in
rain mn
in
humidity
%
barometer
mb
20260507041517 56 0 0.9 2.6 0.00 0.00 0.00 38 1023.1
20260507040017 57 0 1.7 6.1 0.00 0.00 0.00 37 1023.4
20260507034517 58 0 1.7 6.1 0.00 0.00 0.00 37 1023.1
20260507033017 59 0 2.6 7.8 0.00 0.00 0.00 35 1023.0
20260507031517 60 0 3.5 7.8 0.00 0.00 0.00 34 1022.8
20260507030017 60 0 2.6 7.8 0.00 0.00 0.00 34 1022.7
20260507024517 60 0 1.7 5.2 0.00 0.00 0.00 34 1022.2
20260507023017 61 0 1.7 8.7 0.00 0.00 0.00 33 1021.6
20260507021517 62 0 1.7 7.0 0.00 0.00 0.00 32 1020.8
20260507020017 63 0 2.6 10.4 0.00 0.00 0.00 31 1020.7
20260507014557 64 0 4.3 11.3 0.00 0.00 0.00 30 1020.3
20260507013037 66 0 4.3 10.4 0.00 0.00 0.00 28 1020.5
20260507011557 68 0 3.5 9.6 0.00 0.00 0.00 26 1020.9
20260507010016 69 0 1.7 7.8 0.00 0.00 0.00 26 1021.0
20260507004516 68 0 3.5 10.4 0.00 0.00 0.00 26 1020.6
20260507003016 69 0 2.6 10.4 0.00 0.00 0.00 25 1020.5
20260507001516 69 0 1.7 6.1 0.00 0.00 0.00 24 1021.0
20260507000017 69 0 2.6 8.7 0.00 0.00 0.00 25 1020.9
20260506234516 70 0 1.7 7.0 0.00 0.00 0.00 25 1021.2
20260506233036 70 0 1.7 7.8 0.00 0.00 0.00 24 1021.4
20260506231516 68 0.0 1.7 0.00 0.00 0.00 24 1020.7
20260506230016 68 0.0 4.3 0.00 0.00 0.00 24 1020.9
20260506224557 68 0 1.7 8.7 0.00 0.00 0.00 23 1021.0
20260506223017 70 0 2.6 7.8 0.00 0.00 0.00 22 1021.5
20260506221516 68 0 0.9 4.3 0.00 0.00 0.00 24 1021.3
20260506220016 68 0 3.5 7.8 0.00 0.00 0.00 23 1021.9
20260506214516 69 0 3.5 12.2 0.00 0.00 0.00 23 1022.1
20260506213016 69 0 1.7 7.0 0.00 0.00 0.00 22 1022.4
20260506211537 67 0 1.7 7.0 0.00 0.00 0.00 24 1022.2
20260506210016 67 0 3.5 12.2 0.00 0.00 0.00 24 1022.6
20260506204516 67 0 1.7 8.7 0.00 0.00 0.00 26 1023.0
20260506203016 66 0 3.5 9.6 0.00 0.00 0.00 25 1022.7
20260506201516 66 0 3.5 10.4 0.00 0.00 0.00 25 1022.8
20260506200016 65 0 3.5 9.6 0.00 0.01 0.00 26 1022.9
20260506194516 64 0 3.5 10.4 0.00 0.01 0.00 26 1023.1
20260506193016 63 0 2.6 7.8 0.00 0.01 0.00 27 1022.8
20260506191516 63 0 2.6 9.6 0.00 0.01 0.00 26 1023.1
20260506190056 63 0 3.5 8.7 0.00 0.01 0.00 27 1023.2
20260506184516 62 0 3.5 10.4 0.00 0.01 0.00 27 1023.2
20260506183016 62 0 3.5 11.3 0.00 0.01 0.00 27 1023.3
20260506181516 62 0 3.5 10.4 0.00 0.01 0.00 28 1023.5
20260506180016 61 0 2.6 7.8 0.00 0.01 0.00 29 1023.4
20260506174516 61 23 3.5 8.7 0.00 0.01 0.00 30 1023.8
20260506173016 61 0 1.7 7.8 0.00 0.01 0.00 31 1023.7
20260506171516 59 0 1.7 5.2 0.00 0.01 0.00 33 1023.3
20260506170016 58 0 1.7 7.8 0.00 0.01 0.00 35 1023.4
20260506164536 58 0 2.6 7.8 0.00 0.01 0.00 35 1023.3
20260506163016 56 0 0.9 4.3 0.00 0.01 0.00 37 1023.3
20260506161516 55 0 1.7 6.1 0.00 0.01 0.00 37 1022.8
20260506160016 56 0 0.9 4.3 0.00 0.01 0.00 37 1023.2
20260506154516 55 0.0 0.0 0.00 0.01 0.00 38 1023.1
20260506153036 54 0.0 2.6 0.00 0.01 0.00 39 1022.7
20260506151515 54 0.0 2.6 0.00 0.01 0.00 39 1022.7
20260506150016 52 0.0 1.7 0.00 0.01 0.00 43 1022.3
20260506144515 50 0.0 0.0 0.00 0.01 0.00 47 1022.2
20260506143016 48 0.0 0.0 0.00 0.01 0.00 53 1021.8
20260506141515 45 0.0 0.0 0.00 0.01 0.00 57 1021.2
20260506140015 43 0.0 0.0 0.00 0.01 0.00 60 1020.7
20260506134516 41 0.0 0.0 0.00 0.01 0.00 64 1020.5
20260506133016 40 0.0 0.9 0.00 0.01 0.00 64 1020.3
20260506131516 40 0.0 0.9 0.00 0.01 0.00 65 1020.2
20260506130017 39 0.0 0.0 0.00 0.01 0.00 67 1019.6
20260506124537 38 0.0 0.0 0.00 0.01 0.00 69 1019.1
20260506123037 38 0.0 0.0 0.00 0.01 0.00 68 1019.2
20260506121517 39 0.0 0.0 0.00 0.01 0.00 66 1019.1
20260506120018 39 0.0 0.0 0.00 0.01 0.00 65 1019.1
20260506114517 40 0.0 0.0 0.00 0.01 0.00 63 1019.7
20260506113018 40 0.0 0.0 0.00 0.01 0.00 64 1019.6
20260506111557 39 0.0 0.0 0.00 0.01 0.00 66 1019.9
20260506110017 39 0.0 0.0 0.00 0.01 0.00 66 1019.4
20260506104517 39 0.0 0.0 0.00 0.01 0.00 65 1019.5
20260506103017 39 0.0 0.0 0.00 0.01 0.00 64 1019.4
20260506101537 40 0.0 0.0 0.00 0.01 0.00 63 1019.4
20260506100017 40 0.0 0.0 0.00 0.01 0.00 62 1019.8
20260506094517 40 0.0 0.0 0.00 0.01 0.00 62 1019.4
20260506093017 40 0.0 0.0 0.00 0.01 0.00 63 1019.4
20260506091517 39 0.0 0.0 0.00 0.01 0.00 63 1018.8
20260506090017 40 0.0 0.0 0.00 0.01 0.00 62 1018.6
20260506084517 41 0.0 0.0 0.00 0.01 0.00 60 1019.0
20260506083037 41 0.0 0.0 0.00 0.01 0.00 60 1018.5
20260506081517 41 0.0 0.0 0.00 0.01 0.00 59 1018.1
20260506073017 42 0.0 0.0 0.00 0.01 0.00 58 1018.6
20260506071516 42 0.0 0.0 0.00 0.01 0.00 57 1018.4
20260506061517 43 0.0 0.0 0.00 0.01 0.01 54 1018.7
20260506044517 47 0.0 0.0 0.00 0.01 0.01 49 1018.3
20260506043017 48 0.0 0.0 0.00 0.01 0.01 47 1018.1
20260506041537 48 0.0 0.0 0.00 0.01 0.01 46 1018.3